Flag for Iran Weather past 2 weeks in Mashhad, Iran

Now
90 °F

Sunny.


Feels Like: 86 °F
Forecast: 71 / 97 °F
Wind: 7 mph from Northwest

Location: Mashhad Airport

Current Time: Aug 5, 2015 at 9:40:40 AM

Latest Report: Aug 5, 2015 at 8:30 AM


Visibility: 10 mi

Pressure: 29.92 "Hg (26.81 "Hg at 981m altitude)

Humidity: 14%

Dew point: 34 °F

Location of MashhadLocation

Historic Weather in Mashhad — Graph

°F

Mashhad temperature yesterday

Maximum temperature yesterday: 99 °F (at 3:00 PM)
Minimum temperature yesterday: 70 °F (at 5:30 AM)
Average temperature yesterday: 87 °F

Past Weeks' High & Low Weather Summary

 TemperatureHumidityPressure
High99 °F (Aug 4, 3:00 PM)56% (Jul 22, 4:30 AM)30.04 "Hg (Jul 22, 4:30 AM)
Low66 °F (Jul 22, 4:30 AM)5% (Jul 29, 2:00 PM)29.77 "Hg (Jul 27, 3:30 PM)
Average83 °F20%29.94 "Hg
* Reported Jul 21 7:30 AM — Aug 5 7:30 AM, Mashhad, Weather by CustomWeather, © 2015

Note: Actual official high and low records may vary slightly from our data, if they occured in-between our weather recording intervals... More about our weather records

Advertising

Mashhad weather history for previous 24 hours

 ConditionsComfort  
Time TempWeatherWind HumidityBarometerVisibility
7:30 AM
Wed, Aug 5
79 °FSunny.5 mph21%29.92 "Hg10 mi
7:00 AM77 °FClear.7 mph22%29.92 "Hg10 mi
6:30 AM75 °FClear.5 mph29%29.92 "Hg10 mi
6:00 AM72 °FClear.5 mph31%29.89 "Hg10 mi
5:30 AM72 °FClear.5 mph29%29.89 "Hg10 mi
5:00 AM72 °FClear.5 mph31%29.89 "Hg10 mi
4:30 AM72 °FClear.9 mph29%29.89 "Hg10 mi
4:00 AM73 °FClear.7 mph27%29.89 "Hg10 mi
3:30 AM75 °FClear.7 mph24%29.89 "Hg10 mi
3:00 AM77 °FClear.9 mph22%29.89 "Hg10 mi
2:30 AM77 °FClear.7 mph22%29.89 "Hg10 mi
2:00 AM79 °FClear.9 mph20%29.92 "Hg10 mi
1:30 AM79 °FClear.7 mph21%29.92 "Hg10 mi
1:00 AM79 °FClear.7 mph20%29.92 "Hg10 mi
12:30 AM81 °FClear.7 mph18%29.92 "Hg10 mi
12:00 AM81 °FClear.7 mph20%29.92 "Hg10 mi
11:30 PM
Tue, Aug 4
82 °FClear.7 mph19%29.92 "Hg10 mi
11:00 PM82 °FClear.9 mph19%29.92 "Hg10 mi
10:30 PM82 °FClear.5 mph20%29.92 "Hg10 mi
9:50 PM82 °FClear.5 mph20%29.95 "Hg10 mi
9:30 PM84 °FClear.7 mph16%29.92 "Hg10 mi
9:00 PM88 °FSunny.12 mph13%29.92 "Hg10 mi
8:30 PM90 °FSunny.12 mph12%29.92 "Hg10 mi
8:00 PM90 °FSunny.12 mph12%29.92 "Hg10 mi
7:30 PM91 °FSunny.14 mph11%29.92 "Hg10 mi
7:00 PM93 °FSunny.18 mph10%29.92 "Hg10 mi
6:30 PM93 °FSunny.16 mph9%29.89 "Hg10 mi
5:55 PM95 °FSunny.16 mph9%29.89 "Hg10 mi
5:30 PM95 °FSunny.18 mph9%29.89 "Hg10 mi
5:00 PM97 °FSunny.16 mph9%29.89 "Hg10 mi
4:30 PM97 °FSunny.18 mph8%29.89 "Hg10 mi
4:00 PM97 °FSunny.18 mph8%29.89 "Hg10 mi
3:30 PM97 °FSunny.18 mph8%29.89 "Hg10 mi
3:00 PM99 °FSunny.16 mph8%29.92 "Hg10 mi
2:30 PM97 °FSunny.16 mph8%29.92 "Hg10 mi
2:00 PM97 °FSunny.12 mph8%29.92 "Hg10 mi
1:30 PM97 °FSunny.12 mph8%29.95 "Hg10 mi
1:00 PM97 °FSunny.16 mph7%29.95 "Hg10 mi
12:30 PM97 °FSunny.12 mph8%29.95 "Hg10 mi
12:00 PM97 °FSunny.9 mph8%29.95 "Hg10 mi
11:30 AM95 °FSunny.9 mph9%29.95 "Hg10 mi
11:00 AM93 °FSunny.12 mph10%29.98 "Hg10 mi
10:30 AM93 °FSunny.16 mph10%29.98 "Hg10 mi
10:00 AM91 °FSunny.16 mph11%29.95 "Hg10 mi
9:30 AM90 °FSunny.12 mph11%29.95 "Hg10 mi
9:00 AM88 °FSunny.14 mph13%29.98 "Hg10 mi
Weather by CustomWeather, © 2015

See weather overviewHow to use our weather pages